STARLINK-32718 (62496 NORAD) Tracking and Keplerian Element Data

This shows tracking and keplerian element data for the satellite.

Feedback or suggestion? Click here.




ElementValue
Catalog62496
NameSTARLINK-32718
Epoch Orbit554
Epoch Day34.83335648
Epoch Year2025
RAAN25.7952
Inclination43.0008
Eccentricity0.0001431
Argument of Perigee262.0431
Mean Anonmoly42.5983
Mean Motion15.40681231
Decay Rate0.00015967
L11 62496U 25003K 25034.83335648 .00015967 00000+0 38894-3 0 9993
L22 62496 43.0008 25.7952 0001431 262.0431 42.5983 15.40681231 5547



Live tracking and technical data element details for STARLINK-32718 (NORAD 62496). STARLINK-32718 can be tracked NOW for your location showing map with azimuth and elevation plus other details from your city location.







IsCatalogInMostPopularTable: catalog: 62496, numindb: 16
Update: records affected: 1



GetName: 62496 STARLINK-32718

Hit Count: updated at: Sat, 24 May 2025 15:58:07 GMT